• In Uzbekistan
  • List of Countries
  • For 7 days
  • Water Temperature
  • Satellite Maps
  • Weather Map
  • Weather Widgets
  • user-avatar
    Login

    Hourly Weather Førde

    Today, 27 May, Monday

    Time Temperature Precipitation Wind Pressure Humidity
    00:00 +3°C° 0 mm 1 mps 697 mmHg 89%
    01:00 +2°C° 0 mm 2 mps 697 mmHg 90%
    02:00 +1°C° 0 mm 2 mps 697 mmHg 91%
    03:00 +1°C° 0 mm 2 mps 696 mmHg 92%
    04:00 +2°C° 0 mm 2 mps 696 mmHg 86%
    05:00 +3°C° 0 mm 2 mps 697 mmHg 81%
    06:00 +4°C° 0 mm 2 mps 697 mmHg 75%
    07:00 +4°C° 0 mm 2 mps 697 mmHg 71%
    08:00 +5°C° 0 mm 2 mps 697 mmHg 67%
    09:00 +5°C° 0 mm 3 mps 697 mmHg 62%
    10:00 +5°C° 0 mm 3 mps 697 mmHg 61%
    11:00 +5°C° 0 mm 3 mps 697 mmHg 59%
    12:00 +5°C° 0 mm 3 mps 697 mmHg 58%
    13:00 +5°C° 0 mm 4 mps 697 mmHg 58%
    14:00 +5°C° 0 mm 4 mps 697 mmHg 58%
    15:00 +5°C° 0 mm 4 mps 698 mmHg 58%
    16:00 +4°C° 0 mm 4 mps 698 mmHg 60%
    17:00 +3°C° 0 mm 3 mps 698 mmHg 62%
    18:00 +2°C° 0 mm 3 mps 698 mmHg 64%
    19:00 +1°C° 0 mm 3 mps 698 mmHg 68%
    20:00 +1°C° 0 mm 2 mps 698 mmHg 72%
    21:00 +1°C° 0 mm 2 mps 698 mmHg 76%
    22:00 -1°C° 0 mm 2 mps 698 mmHg 78%
    23:00 -1°C° 0 mm 2 mps 698 mmHg 80%

    Tomorrow, 28 May, Tuesday

    Time Temperature Precipitation Wind Pressure Humidity
    00:00 -2°C° 0 mm 2 mps 699 mmHg 83%
    01:00 -2°C° 0 mm 2 mps 699 mmHg 82%
    02:00 -2°C° 0 mm 2 mps 699 mmHg 81%
    03:00 -2°C° 0 mm 2 mps 699 mmHg 81%
    04:00 -1°C° 0 mm 2 mps 699 mmHg 73%
    05:00 -1°C° 0 mm 2 mps 700 mmHg 65%
    06:00 +1°C° 0 mm 2 mps 700 mmHg 58%
    07:00 +2°C° 0 mm 2 mps 700 mmHg 55%
    08:00 +1°C° 0 mm 3 mps 700 mmHg 51%
    09:00 +2°C° 0 mm 3 mps 701 mmHg 48%
    10:00 +1°C° 0.1 mm 4 mps 701 mmHg 48%
    11:00 +3°C° 0.1 mm 4 mps 701 mmHg 49%
    12:00 +2°C° 0.1 mm 5 mps 702 mmHg 49%
    13:00 +2°C° 0.1 mm 5 mps 702 mmHg 51%
    14:00 +2°C° 0.1 mm 5 mps 702 mmHg 53%
    15:00 +1°C° 0.1 mm 4 mps 702 mmHg 55%
    16:00 +1°C° 0.1 mm 4 mps 703 mmHg 58%
    17:00 +1°C° 0.1 mm 3 mps 703 mmHg 61%
    18:00 +1°C° 0.1 mm 3 mps 703 mmHg 64%
    19:00 +1°C° 0.1 mm 2 mps 703 mmHg 68%
    20:00 -1°C° 0.1 mm 2 mps 703 mmHg 72%
    21:00 0°C° 0.1 mm 1 mps 703 mmHg 76%
    22:00 -2°C° 0.1 mm 2 mps 703 mmHg 76%
    23:00 -2°C° 0.1 mm 2 mps 703 mmHg 77%

    Day after tomorrow, 29 May, Wednesday

    Time Temperature Precipitation Wind Pressure Humidity
    00:00 -2°C° 0.1 mm 3 mps 703 mmHg 78%
    01:00 -1°C° 0.5 mm 3 mps 703 mmHg 79%
    02:00 -2°C° 0.5 mm 4 mps 703 mmHg 80%
    03:00 -2°C° 0.5 mm 4 mps 703 mmHg 81%
    04:00 -2°C° 1 mm 4 mps 703 mmHg 81%
    05:00 -2°C° 1 mm 4 mps 703 mmHg 82%
    06:00 -1°C° 1 mm 5 mps 703 mmHg 83%
    07:00 -1°C° 0.5 mm 5 mps 704 mmHg 81%
    08:00 0°C° 0.5 mm 5 mps 704 mmHg 80%
    09:00 0°C° 0.5 mm 5 mps 704 mmHg 79%
    10:00 +1°C° 0.5 mm 5 mps 704 mmHg 79%
    11:00 +1°C° 0.5 mm 6 mps 705 mmHg 79%
    12:00 +1°C° 0.5 mm 6 mps 705 mmHg 80%
    13:00 +1°C° 0.6 mm 6 mps 705 mmHg 80%
    14:00 +1°C° 0.6 mm 6 mps 705 mmHg 81%
    15:00 0°C° 0.6 mm 7 mps 705 mmHg 82%
    16:00 -1°C° 0.4 mm 6 mps 705 mmHg 83%
    17:00 0°C° 0.4 mm 5 mps 705 mmHg 84%
    18:00 0°C° 0.4 mm 5 mps 705 mmHg 85%
    19:00 0°C° 0.5 mm 4 mps 705 mmHg 88%
    20:00 +1°C° 0.5 mm 3 mps 704 mmHg 90%
    21:00 +1°C° 0.5 mm 2 mps 704 mmHg 92%
    22:00 +1°C° 0.4 mm 2 mps 704 mmHg 92%
    23:00 +1°C° 0.4 mm 2 mps 704 mmHg 92%

    30 May, Thursday

    Time Temperature Precipitation Wind Pressure Humidity
    00:00 +1°C° 0.4 mm 2 mps 704 mmHg 92%
    01:00 +1°C° 0.5 mm 2 mps 704 mmHg 91%
    02:00 +1°C° 0.5 mm 2 mps 704 mmHg 91%
    03:00 +1°C° 0.5 mm 2 mps 704 mmHg 90%
    04:00 +1°C° 0.6 mm 2 mps 703 mmHg 90%
    05:00 +1°C° 0.6 mm 2 mps 703 mmHg 89%
    06:00 +1°C° 0.6 mm 2 mps 703 mmHg 88%
    07:00 +2°C° 0.4 mm 2 mps 703 mmHg 85%
    08:00 +2°C° 0.4 mm 2 mps 703 mmHg 82%
    09:00 +3°C° 0.4 mm 2 mps 703 mmHg 79%
    10:00 +3°C° 0.4 mm 2 mps 704 mmHg 77%
    11:00 +3°C° 0.4 mm 2 mps 704 mmHg 75%
    12:00 +3°C° 0.4 mm 3 mps 704 mmHg 73%
    13:00 +3°C° 0.4 mm 3 mps 704 mmHg 72%
    14:00 +3°C° 0.4 mm 3 mps 704 mmHg 72%
    15:00 +3°C° 0.4 mm 3 mps 705 mmHg 71%
    16:00 +2°C° 0.1 mm 3 mps 705 mmHg 73%
    17:00 +2°C° 0.1 mm 3 mps 705 mmHg 75%
    18:00 +2°C° 0.1 mm 3 mps 706 mmHg 77%
    19:00 +1°C° 0.1 mm 3 mps 706 mmHg 80%
    20:00 +1°C° 0.1 mm 2 mps 707 mmHg 84%
    21:00 +1°C° 0.1 mm 1 mps 707 mmHg 88%
    22:00 +1°C° 0.4 mm 2 mps 708 mmHg 90%
    23:00 +1°C° 0.4 mm 2 mps 708 mmHg 91%

    31 May, Friday

    Time Temperature Precipitation Wind Pressure Humidity
    00:00 0°C° 0.4 mm 3 mps 709 mmHg 93%
    01:00 +1°C° 0.1 mm 2 mps 709 mmHg 92%
    02:00 +1°C° 0.1 mm 2 mps 709 mmHg 91%
    03:00 +1°C° 0.1 mm 1 mps 709 mmHg 90%
    04:00 +1°C° 0.1 mm 2 mps 710 mmHg 88%
    05:00 +1°C° 0.1 mm 2 mps 710 mmHg 86%
    06:00 +2°C° 0.1 mm 2 mps 711 mmHg 85%
    07:00 +2°C° 0.1 mm 2 mps 711 mmHg 84%
    08:00 +2°C° 0.1 mm 2 mps 711 mmHg 83%
    09:00 +2°C° 0.1 mm 2 mps 711 mmHg 82%
    10:00 +2°C° 0.1 mm 2 mps 712 mmHg 81%
    11:00 +3°C° 0.1 mm 2 mps 712 mmHg 79%
    12:00 +3°C° 0.1 mm 2 mps 712 mmHg 78%
    13:00 +3°C° 0.1 mm 2 mps 712 mmHg 77%
    14:00 +3°C° 0.1 mm 2 mps 713 mmHg 77%
    15:00 +3°C° 0.1 mm 2 mps 713 mmHg 76%
    16:00 +3°C° 0.1 mm 2 mps 713 mmHg 77%
    17:00 +3°C° 0.1 mm 2 mps 713 mmHg 77%
    18:00 +3°C° 0.1 mm 2 mps 713 mmHg 78%
    19:00 +3°C° 0.1 mm 1 mps 713 mmHg 81%
    20:00 +2°C° 0.1 mm 1 mps 713 mmHg 84%
    21:00 +1°C° 0.1 mm 1 mps 713 mmHg 87%
    22:00 +1°C° 0 mm 1 mps 713 mmHg 88%
    23:00 +1°C° 0 mm 1 mps 713 mmHg 88%

    1 June, Saturday

    Time Temperature Precipitation Wind Pressure Humidity
    00:00 +1°C° 0 mm 1 mps 713 mmHg 89%
    01:00 +1°C° 0 mm 1 mps 713 mmHg 89%
    02:00 +1°C° 0 mm 1 mps 713 mmHg 89%
    03:00 0°C° 0 mm 1 mps 713 mmHg 89%
    04:00 +1°C° 0 mm 1 mps 712 mmHg 84%
    05:00 +2°C° 0 mm 1 mps 712 mmHg 80%
    06:00 +2°C° 0 mm 0 mps 712 mmHg 76%
    07:00 +3°C° 0 mm 0 mps 712 mmHg 71%
    08:00 +4°C° 0 mm 0 mps 712 mmHg 67%
    09:00 +5°C° 0 mm 0 mps 712 mmHg 63%
    10:00 +6°C° 0 mm 0 mps 712 mmHg 60%
    11:00 +8°C° 0 mm 1 mps 712 mmHg 58%
    12:00 +9°C° 0 mm 1 mps 712 mmHg 55%
    13:00 +9°C° 0 mm 1 mps 711 mmHg 55%
    14:00 +9°C° 0 mm 1 mps 711 mmHg 55%
    15:00 +8°C° 0 mm 2 mps 711 mmHg 55%
    16:00 +7°C° 0 mm 2 mps 710 mmHg 59%
    17:00 +7°C° 0 mm 2 mps 710 mmHg 62%
    18:00 +7°C° 0 mm 2 mps 710 mmHg 65%
    19:00 +5°C° 0 mm 2 mps 710 mmHg 73%
    20:00 +5°C° 0 mm 1 mps 710 mmHg 80%
    21:00 +4°C° 0 mm 1 mps 709 mmHg 87%
    22:00 +3°C° 0 mm 1 mps 709 mmHg 87%
    23:00 +3°C° 0 mm 1 mps 709 mmHg 88%
    Show more